Portada
METAR-TAF:

METAR-TAF

Aeroports :

Machala, Equador

latitud: 03-26-07S, longitud: 079-58-40W, altitud: 52 m

Observació

L'informe es va fer fa 16 hores i 56 minuts, a les 17:00 UTC
Vent 5 kt del Nord/Nord-Oest
Temperatura 25°C
Humitat 83%
Pressió 1013 hPa
Visibilitat 10 km o més
Escasses núvols a una alçada de 1600 ft
Cel cobert a una alçada de 3300 ft

METAR: SERO 011700Z 33005KT 9999 FEW016 OVC033 25/22 Q1013

Hora: 04:56 (09:56 UTC)


TAF: manca

Observacions i pronòstics meteorològics de més de 4000 aeroports (METAR i TAF).

Les estacions disponibles són els punts grocs i vermells al mapa.

Posi el ratolí al punt desitjat per veure el nom de l'estació.

Feu clic per veure les observacions i els pronòstics meteorològics.

Per canviar el mapa: feu clic els botons verds amb una creu de color negre per apropar; al botó verd amb un guió per allunyar la imatge; o en les fletxes verdes per a mapes adjacents.


METAR-TAF: